GSAT0102 (GALILEO-FM2)

Last updated on Sat Dec 13 2025 00:02:34 GMT+0000 (Coordinated Universal Time)

1 37847U 11060B 25346.24126557 -.00000087 00000+0 00000+0 0 9993 2 37847 57.0536 346.8337 0004980 309.4177 51.2149 1.70475905 87941
UTC large
Height (km)
Speed (km/s)
/
Latitude / Longitude
Inclination (degrees)
Orbital Period (minutes)
Azimuth
Elevation
Range (km)
Doppler Factor

Next 0 passes for location: London (51.5072 / 0.1276)

Sorry there are no passes over London.